Location: New Plymouth
(39.0670°S, 174.0830°E)
Time: 15:09:56
(UTC+12:00)

STRAND 1 - Pass Details

Date: 30 August 2019
Orbit: 768 x 782 km, 98.5° (Epoch: 15 September)

Event Time Altitude Azimuth Distance (km) Brightness Sun altitude
Rises 20:01:33 0° 344° (NNW) 3,250 ? -24.5°
Reaches altitude 10° 20:04:12 10° 331° (NNW) 2,334 ? -25.0°
Maximum altitude 20:08:27 26° 275° (W) 1,524 ? -25.8°
Drops below altitude 10° 20:12:46 10° 219° (SW) 2,366 ? -26.6°
Sets 20:15:30 0° 206° (SSW) 3,304 ? -27.1°
